Time,TemperatureF,DewpointF,PressureIn,WindDirection,WindDirectionDegrees,WindSpeedMPH,WindSpeedGustMPH,Humidity,HourlyPrecipIn,Conditions,Clouds,dailyrainin,SoftwareType,DateUTC
2013-08-22 00:01:00,70.9,65.8,30.02,South,188,0.0,0.0,84,0.00,,,0.00,WeatherCatV1.21B27,2013-08-22 04:01:00,
2013-08-22 00:05:00,70.8,65.7,30.02,South,189,0.0,0.0,84,0.00,,,0.00,WeatherCatV1.21B27,2013-08-22 04:05:00,
2013-08-22 00:06:00,70.8,65.7,30.02,South,189,0.0,0.0,84,0.00,,,0.00,WeatherCatV1.21B27,2013-08-22 04:06:00,
2013-08-22 00:07:00,70.7,65.6,30.02,South,188,0.0,0.0,84,0.00,,,0.00,WeatherCatV1.21B27,2013-08-22 04:07:00,
2013-08-22 00:08:00,70.7,65.6,30.01,South,188,0.0,0.0,84,0.00,,,0.00,WeatherCatV1.21B27,2013-08-22 04:08:00,
2013-08-22 00:13:00,70.6,65.5,30.02,South,189,0.0,0.0,84,0.00,,,0.00,WeatherCatV1.21B27,2013-08-22 04:13:00,
2013-08-22 00:18:00,70.5,65.8,30.02,South,189,0.0,0.0,85,0.00,,,0.00,WeatherCatV1.21B27,2013-08-22 04:18:00,
2013-08-22 00:23:00,70.3,65.6,30.02,South,189,0.0,0.0,85,0.00,,,0.00,WeatherCatV1.21B27,2013-08-22 04:23:00,
2013-08-22 00:28:00,70.3,65.6,30.02,South,189,0.0,0.0,85,0.00,,,0.00,WeatherCatV1.21B27,2013-08-22 04:28:00,
2013-08-22 00:33:00,70.2,65.5,30.02,South,189,0.0,0.0,85,0.00,,,0.00,WeatherCatV1.21B27,2013-08-22 04:33:00,
2013-08-22 00:38:00,70.4,65.3,30.02,South,188,0.0,0.0,84,0.00,,,0.00,WeatherCatV1.21B27,2013-08-22 04:38:00,
2013-08-22 00:43:00,70.5,65.4,30.02,South,188,0.0,0.0,84,0.00,,,0.00,WeatherCatV1.21B27,2013-08-22 04:43:00,
2013-08-22 00:48:00,70.5,65.4,30.02,South,189,0.0,0.0,84,0.00,,,0.00,WeatherCatV1.21B27,2013-08-22 04:48:00,
2013-08-22 00:53:00,70.4,65.3,30.03,South,190,0.0,0.0,84,0.00,,,0.00,WeatherCatV1.21B27,2013-08-22 04:53:00,
2013-08-22 00:58:00,70.2,65.1,30.03,South,190,0.0,0.0,84,0.00,,,0.00,WeatherCatV1.21B27,2013-08-22 04:58:00,
2013-08-22 01:03:00,70.1,65.0,30.02,South,190,0.0,0.0,84,0.00,,,0.00,WeatherCatV1.21B27,2013-08-22 05:03:00,
2013-08-22 01:08:00,69.9,64.8,30.02,South,190,0.0,0.0,84,0.00,,,0.00,WeatherCatV1.21B27,2013-08-22 05:08:00,
2013-08-22 01:13:00,69.7,65.0,30.03,South,190,0.0,0.0,85,0.00,,,0.00,WeatherCatV1.21B27,2013-08-22 05:13:00,
2013-08-22 01:18:00,69.6,64.9,30.03,South,190,0.0,0.0,85,0.00,,,0.00,WeatherCatV1.21B27,2013-08-22 05:18:00,
2013-08-22 01:23:00,69.5,64.8,30.02,South,190,0.0,0.0,85,0.00,,,0.00,WeatherCatV1.21B27,2013-08-22 05:23:00,
2013-08-22 01:28:00,69.4,64.7,30.02,South,190,0.0,0.0,85,0.00,,,0.00,WeatherCatV1.21B27,2013-08-22 05:28:00,
2013-08-22 01:33:00,69.3,64.9,30.02,South,190,0.0,0.0,86,0.00,,,0.00,WeatherCatV1.21B27,2013-08-22 05:33:00,
2013-08-22 01:38:00,69.2,64.8,30.02,South,190,0.0,0.0,86,0.00,,,0.00,WeatherCatV1.21B27,2013-08-22 05:38:00,
2013-08-22 01:43:00,69.0,64.6,30.02,South,190,0.0,0.0,86,0.00,,,0.00,WeatherCatV1.21B27,2013-08-22 05:43:00,
2013-08-22 01:48:00,68.9,64.5,30.02,South,190,0.0,0.0,86,0.00,,,0.00,WeatherCatV1.21B27,2013-08-22 05:48:00,
2013-08-22 01:53:00,68.8,64.8,30.01,South,190,0.0,0.0,87,0.00,,,0.00,WeatherCatV1.21B27,2013-08-22 05:53:00,
2013-08-22 01:58:00,68.7,64.7,30.01,South,190,0.0,0.0,87,0.00,,,0.00,WeatherCatV1.21B27,2013-08-22 05:58:00,
2013-08-22 02:03:00,68.6,64.6,30.00,South,190,0.0,0.0,87,0.00,,,0.00,WeatherCatV1.21B27,2013-08-22 06:03:00,
2013-08-22 02:08:00,68.4,64.4,30.01,South,190,0.0,0.0,87,0.00,,,0.00,WeatherCatV1.21B27,2013-08-22 06:08:00,
2013-08-22 02:13:00,68.3,64.3,30.00,South,190,0.0,0.0,87,0.00,,,0.00,WeatherCatV1.21B27,2013-08-22 06:13:00,
2013-08-22 02:18:00,68.3,64.3,30.00,South,190,0.0,0.0,87,0.00,,,0.00,WeatherCatV1.21B27,2013-08-22 06:18:00,
2013-08-22 02:23:00,68.3,64.3,30.00,South,190,0.0,0.0,87,0.00,,,0.00,WeatherCatV1.21B27,2013-08-22 06:23:00,
2013-08-22 02:28:00,68.2,64.5,30.00,South,190,0.0,0.0,88,0.00,,,0.00,WeatherCatV1.21B27,2013-08-22 06:28:00,
2013-08-22 02:33:00,68.2,64.5,30.00,South,190,0.0,0.0,88,0.00,,,0.00,WeatherCatV1.21B27,2013-08-22 06:33:00,
2013-08-22 02:38:00,68.2,64.5,30.00,South,190,0.0,0.0,88,0.00,,,0.00,WeatherCatV1.21B27,2013-08-22 06:38:00,
2013-08-22 02:43:00,68.2,64.5,29.99,South,190,0.0,0.0,88,0.00,,,0.00,WeatherCatV1.21B27,2013-08-22 06:43:00,
2013-08-22 02:48:00,68.3,64.6,29.99,South,190,0.0,0.0,88,0.00,,,0.00,WeatherCatV1.21B27,2013-08-22 06:48:00,
2013-08-22 02:53:00,68.4,64.7,29.99,South,190,0.0,0.0,88,0.00,,,0.00,WeatherCatV1.21B27,2013-08-22 06:53:00,
2013-08-22 02:58:00,68.3,64.6,29.99,South,190,0.0,0.0,88,0.00,,,0.00,WeatherCatV1.21B27,2013-08-22 06:58:00,
2013-08-22 03:03:00,68.3,64.6,29.98,South,190,0.0,0.0,88,0.00,,,0.00,WeatherCatV1.21B27,2013-08-22 07:03:00,
2013-08-22 03:08:00,68.3,64.9,29.98,South,190,0.0,0.0,89,0.00,,,0.00,WeatherCatV1.21B27,2013-08-22 07:08:00,
2013-08-22 03:13:00,68.4,65.0,29.98,South,190,0.0,0.0,89,0.00,,,0.00,WeatherCatV1.21B27,2013-08-22 07:13:00,
2013-08-22 03:18:00,68.4,64.7,29.98,South,190,0.0,0.0,88,0.00,,,0.00,WeatherCatV1.21B27,2013-08-22 07:18:00,
2013-08-22 03:23:00,68.3,64.6,29.99,South,190,0.0,0.0,88,0.00,,,0.00,WeatherCatV1.21B27,2013-08-22 07:23:00,
2013-08-22 03:28:00,68.2,64.8,29.99,South,190,0.0,0.0,89,0.00,,,0.00,WeatherCatV1.21B27,2013-08-22 07:28:00,
2013-08-22 03:33:00,68.2,64.8,30.00,South,190,0.0,0.0,89,0.00,,,0.00,WeatherCatV1.21B27,2013-08-22 07:33:00,
2013-08-22 03:38:00,68.2,64.8,29.99,South,190,0.0,0.0,89,0.00,,,0.00,WeatherCatV1.21B27,2013-08-22 07:38:00,
2013-08-22 03:43:00,68.1,64.4,30.00,South,190,0.0,0.0,88,0.00,,,0.00,WeatherCatV1.21B27,2013-08-22 07:43:00,
2013-08-22 03:48:00,68.1,64.7,30.00,South,190,0.0,0.0,89,0.00,,,0.00,WeatherCatV1.21B27,2013-08-22 07:48:00,
2013-08-22 03:53:00,68.0,64.6,29.99,South,190,0.0,0.0,89,0.00,,,0.00,WeatherCatV1.21B27,2013-08-22 07:53:00,
2013-08-22 03:58:00,67.9,64.5,29.99,South,190,0.0,0.0,89,0.00,,,0.00,WeatherCatV1.21B27,2013-08-22 07:58:00,
2013-08-22 04:03:00,67.9,64.5,29.99,South,190,0.0,0.0,89,0.00,,,0.00,WeatherCatV1.21B27,2013-08-22 08:03:00,
2013-08-22 04:08:00,67.8,64.4,29.99,South,190,0.0,0.0,89,0.00,,,0.00,WeatherCatV1.21B27,2013-08-22 08:08:00,
2013-08-22 04:13:00,67.8,64.4,29.99,South,190,0.0,0.0,89,0.00,,,0.00,WeatherCatV1.21B27,2013-08-22 08:13:00,
2013-08-22 04:18:00,67.8,64.4,29.99,South,190,0.0,0.0,89,0.00,,,0.00,WeatherCatV1.21B27,2013-08-22 08:18:00,
2013-08-22 04:23:00,67.7,64.3,29.99,South,190,0.0,0.0,89,0.00,,,0.00,WeatherCatV1.21B27,2013-08-22 08:23:00,
2013-08-22 04:28:00,67.7,64.3,29.99,South,190,0.0,0.0,89,0.00,,,0.00,WeatherCatV1.21B27,2013-08-22 08:28:00,
2013-08-22 04:33:00,67.6,64.2,29.99,South,190,0.0,0.0,89,0.00,,,0.00,WeatherCatV1.21B27,2013-08-22 08:33:00,
2013-08-22 04:38:00,67.5,64.1,29.99,South,190,0.0,0.0,89,0.00,,,0.00,WeatherCatV1.21B27,2013-08-22 08:38:00,
2013-08-22 04:43:00,67.5,64.1,29.98,South,190,0.0,0.0,89,0.00,,,0.00,WeatherCatV1.21B27,2013-08-22 08:43:00,
2013-08-22 04:48:00,67.5,64.1,29.98,South,190,0.0,0.0,89,0.00,,,0.00,WeatherCatV1.21B27,2013-08-22 08:48:00,
2013-08-22 04:53:00,67.5,64.1,29.98,South,190,0.0,0.0,89,0.00,,,0.00,WeatherCatV1.21B27,2013-08-22 08:53:00,
2013-08-22 04:58:00,67.4,64.0,29.98,South,190,0.0,0.0,89,0.00,,,0.00,WeatherCatV1.21B27,2013-08-22 08:58:00,
2013-08-22 05:03:00,67.3,63.9,29.98,South,190,0.0,0.0,89,0.00,,,0.00,WeatherCatV1.21B27,2013-08-22 09:03:00,
2013-08-22 05:08:00,67.2,64.2,29.98,South,190,0.0,0.0,90,0.00,,,0.00,WeatherCatV1.21B27,2013-08-22 09:08:00,
2013-08-22 05:13:00,67.2,64.2,29.98,South,190,0.0,0.0,90,0.00,,,0.00,WeatherCatV1.21B27,2013-08-22 09:13:00,
2013-08-22 05:18:00,67.1,64.1,29.98,South,190,0.0,0.0,90,0.00,,,0.00,WeatherCatV1.21B27,2013-08-22 09:18:00,
2013-08-22 05:23:00,67.1,64.1,29.98,South,190,0.0,0.0,90,0.00,,,0.00,WeatherCatV1.21B27,2013-08-22 09:23:00,
2013-08-22 05:28:00,67.1,64.1,29.98,South,190,0.0,0.0,90,0.00,,,0.00,WeatherCatV1.21B27,2013-08-22 09:28:00,
2013-08-22 05:33:00,67.1,64.1,29.98,South,190,0.0,0.0,90,0.00,,,0.00,WeatherCatV1.21B27,2013-08-22 09:33:00,
2013-08-22 05:38:00,67.0,64.0,29.98,South,190,0.0,0.0,90,0.00,,,0.00,WeatherCatV1.21B27,2013-08-22 09:38:00,
2013-08-22 05:43:00,67.0,64.0,29.98,South,190,0.0,0.0,90,0.00,,,0.00,WeatherCatV1.21B27,2013-08-22 09:43:00,
2013-08-22 05:48:00,67.0,64.0,29.98,South,190,0.0,0.0,90,0.00,,,0.00,WeatherCatV1.21B27,2013-08-22 09:48:00,
2013-08-22 05:53:00,66.9,63.9,29.98,South,190,0.0,0.0,90,0.00,,,0.00,WeatherCatV1.21B27,2013-08-22 09:53:00,
2013-08-22 05:58:00,66.8,63.8,29.98,South,190,0.0,0.0,90,0.00,,,0.00,WeatherCatV1.21B27,2013-08-22 09:58:00,
2013-08-22 06:03:00,66.8,63.8,29.98,South,190,0.0,0.0,90,0.00,,,0.00,WeatherCatV1.21B27,2013-08-22 10:03:00,
2013-08-22 06:08:00,66.8,63.8,29.98,South,190,0.0,0.0,90,0.00,,,0.00,WeatherCatV1.21B27,2013-08-22 10:08:00,
2013-08-22 06:13:00,66.8,63.8,29.98,South,190,0.0,0.0,90,0.00,,,0.00,WeatherCatV1.21B27,2013-08-22 10:13:00,
2013-08-22 06:18:00,66.7,63.7,29.99,South,190,0.0,0.0,90,0.00,,,0.00,WeatherCatV1.21B27,2013-08-22 10:18:00,
2013-08-22 06:23:00,66.6,63.6,29.98,South,190,0.0,0.0,90,0.00,,,0.00,WeatherCatV1.21B27,2013-08-22 10:23:00,
2013-08-22 06:28:00,66.6,63.6,29.98,South,190,0.0,0.0,90,0.00,,,0.00,WeatherCatV1.21B27,2013-08-22 10:28:00,
2013-08-22 06:33:00,66.7,64.0,29.98,South,190,0.0,0.0,91,0.00,,,0.00,WeatherCatV1.21B27,2013-08-22 10:33:00,
2013-08-22 06:38:00,66.7,64.0,29.97,South,190,0.0,0.0,91,0.00,,,0.00,WeatherCatV1.21B27,2013-08-22 10:38:00,
2013-08-22 06:43:00,66.7,64.0,29.97,South,190,0.0,0.0,91,0.00,,,0.00,WeatherCatV1.21B27,2013-08-22 10:43:00,
2013-08-22 06:45:00,66.7,64.0,29.97,South,189,0.0,0.0,91,0.00,,,0.00,WeatherCatV1.21B27,2013-08-22 10:45:00,
2013-08-22 06:48:00,66.7,64.0,29.97,South,190,0.0,0.0,91,0.00,,,0.00,WeatherCatV1.21B27,2013-08-22 10:48:00,
2013-08-22 06:50:00,66.7,64.0,29.97,South,189,0.0,0.0,91,0.00,,,0.00,WeatherCatV1.21B27,2013-08-22 10:50:00,
2013-08-22 06:55:00,66.7,64.0,29.97,South,189,0.0,0.0,91,0.00,,,0.00,WeatherCatV1.21B27,2013-08-22 10:55:00,
2013-08-22 07:00:00,66.7,64.0,29.98,South,189,0.0,0.0,91,0.00,,,0.00,WeatherCatV1.21B27,2013-08-22 11:00:00,
2013-08-22 07:05:00,66.9,64.2,29.98,South,189,0.0,0.0,91,0.00,,,0.00,WeatherCatV1.21B27,2013-08-22 11:05:00,
2013-08-22 07:10:00,67.0,64.3,29.97,South,189,0.0,0.0,91,0.00,,,0.00,WeatherCatV1.21B27,2013-08-22 11:10:00,
2013-08-22 07:15:00,67.1,64.4,29.97,SSW,192,0.0,0.0,91,0.00,,,0.00,WeatherCatV1.21B27,2013-08-22 11:15:00,
2013-08-22 07:20:00,67.0,64.3,29.98,SSW,192,0.0,0.0,91,0.00,,,0.00,WeatherCatV1.21B27,2013-08-22 11:20:00,
2013-08-22 07:25:00,67.2,64.5,29.98,SSW,203,0.0,0.0,91,0.00,,,0.00,WeatherCatV1.21B27,2013-08-22 11:25:00,
2013-08-22 07:30:00,67.2,64.5,29.98,SSW,203,0.0,0.0,91,0.00,,,0.00,WeatherCatV1.21B27,2013-08-22 11:30:00,
2013-08-22 07:35:00,67.3,64.6,29.98,SSW,204,0.0,0.0,91,0.00,,,0.00,WeatherCatV1.21B27,2013-08-22 11:35:00,
2013-08-22 07:40:00,67.3,64.6,29.98,SSW,204,0.0,0.0,91,0.00,,,0.00,WeatherCatV1.21B27,2013-08-22 11:40:00,
2013-08-22 07:45:00,67.5,64.8,29.98,SSW,204,0.0,0.0,91,0.00,,,0.00,WeatherCatV1.21B27,2013-08-22 11:45:00,
2013-08-22 07:50:00,67.6,64.9,29.99,SSW,204,0.0,0.0,91,0.00,,,0.00,WeatherCatV1.21B27,2013-08-22 11:50:00,
2013-08-22 07:55:00,67.8,65.1,29.99,SSW,204,0.0,0.0,91,0.00,,,0.00,WeatherCatV1.21B27,2013-08-22 11:55:00,
2013-08-22 08:00:00,67.9,65.2,29.99,SSW,204,0.0,0.0,91,0.00,,,0.00,WeatherCatV1.21B27,2013-08-22 12:00:00,
2013-08-22 08:05:00,68.2,65.5,29.99,SW,214,0.0,0.0,91,0.00,,,0.00,WeatherCatV1.21B27,2013-08-22 12:05:00,
2013-08-22 08:10:00,68.4,65.7,30.00,SW,216,0.0,0.0,91,0.00,,,0.00,WeatherCatV1.21B27,2013-08-22 12:10:00,
2013-08-22 08:15:00,68.6,65.9,30.00,SW,216,0.0,0.0,91,0.00,,,0.00,WeatherCatV1.21B27,2013-08-22 12:15:00,
2013-08-22 08:29:00,68.8,66.1,30.00,SW,216,0.0,0.0,91,0.00,,,0.00,WeatherCatV1.21B27,2013-08-22 12:29:00,
2013-08-22 08:34:00,69.9,66.8,30.00,SW,217,0.0,0.0,90,0.00,,,0.00,WeatherCatV1.21B27,2013-08-22 12:34:00,
2013-08-22 08:39:00,70.2,66.8,30.00,SW,214,0.0,0.0,89,0.00,,,0.00,WeatherCatV1.21B27,2013-08-22 12:39:00,
2013-08-22 08:44:00,70.6,67.2,30.00,SW,214,0.0,0.0,89,0.00,,,0.00,WeatherCatV1.21B27,2013-08-22 12:44:00,
2013-08-22 08:49:00,71.0,67.6,30.00,SSW,202,0.0,0.0,89,0.00,,,0.00,WeatherCatV1.21B27,2013-08-22 12:49:00,
2013-08-22 08:54:00,71.5,67.8,29.99,South,191,0.0,0.0,88,0.00,,,0.00,WeatherCatV1.21B27,2013-08-22 12:54:00,
2013-08-22 08:59:00,72.0,67.9,29.99,South,187,0.0,0.0,87,0.00,,,0.00,WeatherCatV1.21B27,2013-08-22 12:59:00,
2013-08-22 09:02:00,72.3,68.2,29.99,South,188,0.0,0.0,87,0.00,,,0.00,WeatherCatV1.21B27,2013-08-22 13:02:00,
2013-08-22 09:07:00,72.7,68.3,29.99,South,186,0.0,0.0,86,0.00,,,0.00,WeatherCatV1.21B27,2013-08-22 13:07:00,
2013-08-22 09:12:00,73.1,68.7,29.99,South,188,0.0,0.0,86,0.00,,,0.00,WeatherCatV1.21B27,2013-08-22 13:12:00,
2013-08-22 09:17:00,73.6,68.8,29.99,WSW,249,0.0,0.0,85,0.00,,,0.00,WeatherCatV1.21B27,2013-08-22 13:17:00,
2013-08-22 09:22:00,73.9,68.4,30.00,WSW,242,0.0,0.0,83,0.00,,,0.00,WeatherCatV1.21B27,2013-08-22 13:22:00,
2013-08-22 09:27:00,74.3,68.4,30.00,WSW,252,0.0,0.0,82,0.00,,,0.00,WeatherCatV1.21B27,2013-08-22 13:27:00,
2013-08-22 09:32:00,74.9,69.0,30.00,SW,223,0.0,0.0,82,0.00,,,0.00,WeatherCatV1.21B27,2013-08-22 13:32:00,
2013-08-22 09:37:00,75.4,69.2,30.01,WSW,246,0.0,0.0,81,0.00,,,0.00,WeatherCatV1.21B27,2013-08-22 13:37:00,
2013-08-22 09:42:00,75.6,68.6,30.00,West,267,0.0,0.0,79,0.00,,,0.00,WeatherCatV1.21B27,2013-08-22 13:42:00,
2013-08-22 09:47:00,75.6,68.6,30.00,SW,234,0.0,0.0,79,0.00,,,0.00,WeatherCatV1.21B27,2013-08-22 13:47:00,
2013-08-22 09:52:00,75.6,68.6,30.00,SW,227,0.0,0.0,79,0.00,,,0.00,WeatherCatV1.21B27,2013-08-22 13:52:00,
2013-08-22 09:57:00,75.5,68.5,30.00,West,273,0.0,0.0,79,0.00,,,0.00,WeatherCatV1.21B27,2013-08-22 13:57:00,
2013-08-22 10:02:00,75.2,68.2,30.01,West,260,0.0,0.0,79,0.00,,,0.00,WeatherCatV1.21B27,2013-08-22 14:02:00,
2013-08-22 10:07:00,74.9,68.3,30.01,West,280,0.0,0.0,80,0.00,,,0.00,WeatherCatV1.21B27,2013-08-22 14:07:00,
2013-08-22 10:12:00,74.7,68.1,30.01,West,265,3.0,3.0,80,0.00,,,0.00,WeatherCatV1.21B27,2013-08-22 14:12:00,
2013-08-22 10:17:00,74.5,68.3,30.01,SW,224,2.0,4.0,81,0.00,,,0.00,WeatherCatV1.21B27,2013-08-22 14:17:00,
2013-08-22 10:22:00,74.3,68.4,30.01,SSW,210,1.0,7.0,82,0.00,,,0.00,WeatherCatV1.21B27,2013-08-22 14:22:00,
2013-08-22 10:27:00,74.4,68.5,30.01,WNW,282,4.0,7.0,82,0.00,,,0.00,WeatherCatV1.21B27,2013-08-22 14:27:00,
2013-08-22 10:32:00,74.3,68.4,30.01,WNW,287,3.0,6.0,82,0.00,,,0.00,WeatherCatV1.21B27,2013-08-22 14:32:00,
2013-08-22 10:37:00,74.5,68.6,30.00,West,261,1.0,7.0,82,0.00,,,0.00,WeatherCatV1.21B27,2013-08-22 14:37:00,
2013-08-22 10:42:00,74.7,68.8,30.00,SW,225,0.0,5.0,82,0.00,,,0.00,WeatherCatV1.21B27,2013-08-22 14:42:00,
2013-08-22 10:47:00,74.8,68.9,30.00,SSW,211,1.0,3.0,82,0.00,,,0.00,WeatherCatV1.21B27,2013-08-22 14:47:00,
2013-08-22 10:52:00,74.9,69.0,30.00,WSW,242,3.0,3.0,82,0.00,,,0.00,WeatherCatV1.21B27,2013-08-22 14:52:00,
2013-08-22 10:57:00,75.2,68.9,30.00,SW,223,3.0,5.0,81,0.00,,,0.00,WeatherCatV1.21B27,2013-08-22 14:57:00,
2013-08-22 11:02:00,75.7,69.1,30.00,West,267,2.0,5.0,80,0.00,,,0.00,WeatherCatV1.21B27,2013-08-22 15:02:00,
2013-08-22 11:07:00,76.2,69.2,30.00,WSW,242,2.0,3.0,79,0.00,,,0.00,WeatherCatV1.21B27,2013-08-22 15:07:00,
2013-08-22 11:12:00,76.5,69.5,29.99,SW,225,3.0,4.0,79,0.00,,,0.00,WeatherCatV1.21B27,2013-08-22 15:12:00,
2013-08-22 11:17:00,77.2,69.8,29.99,WSW,249,1.0,3.0,78,0.00,,,0.00,WeatherCatV1.21B27,2013-08-22 15:17:00,
2013-08-22 11:22:00,77.0,69.6,29.99,SW,229,0.0,4.0,78,0.00,,,0.00,WeatherCatV1.21B27,2013-08-22 15:22:00,
2013-08-22 11:27:00,76.9,69.5,30.00,SW,224,2.0,5.0,78,0.00,,,0.00,WeatherCatV1.21B27,2013-08-22 15:27:00,
2013-08-22 11:32:00,76.8,69.4,30.00,WSW,243,2.0,3.0,78,0.00,,,0.00,WeatherCatV1.21B27,2013-08-22 15:32:00,
2013-08-22 11:37:00,76.9,69.5,30.00,SW,221,3.0,4.0,78,0.00,,,0.00,WeatherCatV1.21B27,2013-08-22 15:37:00,
2013-08-22 11:42:00,76.7,68.9,29.99,West,270,2.0,7.0,77,0.00,,,0.00,WeatherCatV1.21B27,2013-08-22 15:42:00,
2013-08-22 11:47:00,76.8,69.4,30.00,WNW,296,1.0,3.0,78,0.00,,,0.00,WeatherCatV1.21B27,2013-08-22 15:47:00,
2013-08-22 11:53:00,76.9,69.1,29.99,SW,234,3.0,6.0,77,0.00,,,0.00,WeatherCatV1.21B27,2013-08-22 15:53:00,
2013-08-22 11:58:00,76.7,69.3,29.99,SW,221,1.0,5.0,78,0.00,,,0.00,WeatherCatV1.21B27,2013-08-22 15:58:00,
2013-08-22 12:03:00,76.6,69.2,29.99,WSW,244,0.0,5.0,78,0.00,,,0.00,WeatherCatV1.21B27,2013-08-22 16:03:00,
2013-08-22 12:08:00,76.5,69.5,30.00,SW,229,1.0,5.0,79,0.00,,,0.00,WeatherCatV1.21B27,2013-08-22 16:08:00,
2013-08-22 12:13:00,76.3,69.7,30.00,WNW,290,2.0,3.0,80,0.00,,,0.00,WeatherCatV1.21B27,2013-08-22 16:13:00,
2013-08-22 12:18:00,76.3,70.0,29.99,WSW,256,3.0,4.0,81,0.00,,,0.00,WeatherCatV1.21B27,2013-08-22 16:18:00,
2013-08-22 12:23:00,76.1,69.8,29.99,WSW,250,2.0,4.0,81,0.00,,,0.00,WeatherCatV1.21B27,2013-08-22 16:23:00,
2013-08-22 12:28:00,76.3,69.7,29.99,WNW,288,1.0,6.0,80,0.00,,,0.00,WeatherCatV1.21B27,2013-08-22 16:28:00,
2013-08-22 12:33:00,76.1,69.5,29.99,SW,226,3.0,6.0,80,0.00,,,0.00,WeatherCatV1.21B27,2013-08-22 16:33:00,
2013-08-22 12:38:00,76.1,69.5,29.99,West,272,2.0,4.0,80,0.00,,,0.00,WeatherCatV1.21B27,2013-08-22 16:38:00,
2013-08-22 12:43:00,76.8,70.2,29.99,WSW,258,1.0,5.0,80,0.00,,,0.00,WeatherCatV1.21B27,2013-08-22 16:43:00,
2013-08-22 12:48:00,77.2,70.2,29.99,WSW,255,3.0,9.0,79,0.00,,,0.00,WeatherCatV1.21B27,2013-08-22 16:48:00,
2013-08-22 12:53:00,77.4,70.7,29.99,West,265,2.0,4.0,80,0.00,,,0.00,WeatherCatV1.21B27,2013-08-22 16:53:00,
2013-08-22 12:58:00,77.3,69.9,29.99,SW,232,4.0,10.0,78,0.00,,,0.00,WeatherCatV1.21B27,2013-08-22 16:58:00,
2013-08-22 13:03:00,77.4,70.4,29.99,SSW,207,5.0,10.0,79,0.00,,,0.00,WeatherCatV1.21B27,2013-08-22 17:03:00,
2013-08-22 13:08:00,77.2,69.8,29.98,West,270,5.0,7.0,78,0.00,,,0.00,WeatherCatV1.21B27,2013-08-22 17:08:00,
2013-08-22 13:13:00,77.2,70.5,29.98,West,276,2.0,5.0,80,0.00,,,0.00,WeatherCatV1.21B27,2013-08-22 17:13:00,
2013-08-22 13:18:00,77.3,69.9,29.98,West,268,4.0,6.0,78,0.00,,,0.00,WeatherCatV1.21B27,2013-08-22 17:18:00,
2013-08-22 13:23:00,77.4,70.7,29.98,WSW,242,4.0,6.0,80,0.00,,,0.00,WeatherCatV1.21B27,2013-08-22 17:23:00,
2013-08-22 13:28:00,77.6,70.2,29.98,West,261,5.0,10.0,78,0.00,,,0.00,WeatherCatV1.21B27,2013-08-22 17:28:00,
2013-08-22 13:33:00,77.3,69.9,29.98,West,261,4.0,9.0,78,0.00,,,0.00,WeatherCatV1.21B27,2013-08-22 17:33:00,
2013-08-22 13:38:00,77.4,70.4,29.98,SW,226,7.0,7.0,79,0.00,,,0.00,WeatherCatV1.21B27,2013-08-22 17:38:00,
2013-08-22 13:43:00,77.5,70.5,29.98,West,273,4.0,6.0,79,0.00,,,0.00,WeatherCatV1.21B27,2013-08-22 17:43:00,
2013-08-22 13:48:00,77.8,70.4,29.98,WSW,250,3.0,8.0,78,0.00,,,0.00,WeatherCatV1.21B27,2013-08-22 17:48:00,
2013-08-22 13:53:00,77.4,70.0,29.98,West,263,5.0,8.0,78,0.00,,,0.00,WeatherCatV1.21B27,2013-08-22 17:53:00,
2013-08-22 13:58:00,77.2,70.2,29.98,WSW,250,5.0,9.0,79,0.00,,,0.00,WeatherCatV1.21B27,2013-08-22 17:58:00,
2013-08-22 14:03:00,77.7,70.7,29.98,WSW,238,5.0,11.0,79,0.00,,,0.00,WeatherCatV1.21B27,2013-08-22 18:03:00,
2013-08-22 14:08:00,77.9,70.8,29.97,WNW,295,2.0,4.0,79,0.00,,,0.00,WeatherCatV1.21B27,2013-08-22 18:08:00,
2013-08-22 14:13:00,78.3,70.9,29.96,WNW,284,4.0,5.0,78,0.00,,,0.00,WeatherCatV1.21B27,2013-08-22 18:13:00,
2013-08-22 14:18:00,79.3,71.4,29.96,WNW,283,3.0,4.0,77,0.00,,,0.00,WeatherCatV1.21B27,2013-08-22 18:18:00,
2013-08-22 14:23:00,79.8,70.8,29.96,SW,227,5.0,6.0,74,0.00,,,0.00,WeatherCatV1.21B27,2013-08-22 18:23:00,
2013-08-22 14:28:00,79.4,70.4,29.96,WSW,250,2.0,5.0,74,0.00,,,0.00,WeatherCatV1.21B27,2013-08-22 18:28:00,
2013-08-22 14:33:00,80.1,71.0,29.96,SW,217,5.0,6.0,74,0.00,,,0.00,WeatherCatV1.21B27,2013-08-22 18:33:00,
2013-08-22 14:38:00,80.1,71.0,29.96,SW,222,2.0,4.0,74,0.00,,,0.00,WeatherCatV1.21B27,2013-08-22 18:38:00,
2013-08-22 14:43:00,79.7,70.3,29.96,WSW,252,3.0,4.0,73,0.00,,,0.00,WeatherCatV1.21B27,2013-08-22 18:43:00,
2013-08-22 14:48:00,79.4,70.0,29.96,WNW,295,2.0,7.0,73,0.00,,,0.00,WeatherCatV1.21B27,2013-08-22 18:48:00,
2013-08-22 14:53:00,79.5,70.1,29.96,West,265,1.0,4.0,73,0.00,,,0.00,WeatherCatV1.21B27,2013-08-22 18:53:00,
2013-08-22 14:58:00,79.4,70.4,29.96,West,281,2.0,6.0,74,0.00,,,0.00,WeatherCatV1.21B27,2013-08-22 18:58:00,
2013-08-22 15:03:00,78.9,69.1,29.97,West,277,4.0,6.0,72,0.00,,,0.00,WeatherCatV1.21B27,2013-08-22 19:03:00,
2013-08-22 15:08:00,78.2,68.8,29.97,SW,217,4.0,10.0,73,0.00,,,0.00,WeatherCatV1.21B27,2013-08-22 19:08:00,
2013-08-22 15:13:00,78.2,69.2,29.97,WNW,300,4.0,6.0,74,0.00,,,0.00,WeatherCatV1.21B27,2013-08-22 19:13:00,
2013-08-22 15:18:00,78.0,69.0,29.96,WSW,254,5.0,9.0,74,0.00,,,0.00,WeatherCatV1.21B27,2013-08-22 19:18:00,
2013-08-22 15:23:00,77.9,69.3,29.96,WSW,241,5.0,7.0,75,0.00,,,0.00,WeatherCatV1.21B27,2013-08-22 19:23:00,
2013-08-22 15:28:00,78.0,69.0,29.97,West,269,3.0,11.0,74,0.00,,,0.00,WeatherCatV1.21B27,2013-08-22 19:28:00,
2013-08-22 15:33:00,77.7,68.7,29.97,SW,227,8.0,10.0,74,0.00,,,0.00,WeatherCatV1.21B27,2013-08-22 19:33:00,
2013-08-22 15:38:00,77.3,69.5,29.97,SW,221,5.0,7.0,77,0.00,,,0.00,WeatherCatV1.21B27,2013-08-22 19:38:00,
2013-08-22 15:43:00,77.1,70.1,29.97,SW,232,4.0,7.0,79,0.00,,,0.00,WeatherCatV1.21B27,2013-08-22 19:43:00,
2013-08-22 15:48:00,77.0,70.3,29.97,SW,228,5.0,7.0,80,0.00,,,0.00,WeatherCatV1.21B27,2013-08-22 19:48:00,
2013-08-22 15:53:00,77.2,70.2,29.96,NW,304,3.0,9.0,79,0.00,,,0.00,WeatherCatV1.21B27,2013-08-22 19:53:00,
2013-08-22 15:58:00,77.3,69.5,29.96,WSW,237,4.0,9.0,77,0.00,,,0.00,WeatherCatV1.21B27,2013-08-22 19:58:00,
2013-08-22 16:03:00,77.0,69.6,29.96,WSW,245,2.0,5.0,78,0.00,,,0.00,WeatherCatV1.21B27,2013-08-22 20:03:00,
2013-08-22 16:08:00,77.4,69.6,29.96,SW,215,4.0,6.0,77,0.00,,,0.00,WeatherCatV1.21B27,2013-08-22 20:08:00,
2013-08-22 16:13:00,77.6,69.0,29.95,SW,217,5.0,5.0,75,0.00,,,0.00,WeatherCatV1.21B27,2013-08-22 20:13:00,
2013-08-22 16:18:00,78.0,69.4,29.96,SW,221,2.0,4.0,75,0.00,,,0.00,WeatherCatV1.21B27,2013-08-22 20:18:00,
2013-08-22 16:23:00,78.6,69.6,29.95,WNW,302,3.0,4.0,74,0.00,,,0.00,WeatherCatV1.21B27,2013-08-22 20:23:00,
2013-08-22 16:28:00,79.0,69.2,29.95,WNW,297,2.0,5.0,72,0.00,,,0.00,WeatherCatV1.21B27,2013-08-22 20:28:00,
2013-08-22 16:33:00,78.9,68.7,29.95,WSW,246,2.0,4.0,71,0.00,,,0.00,WeatherCatV1.21B27,2013-08-22 20:33:00,
2013-08-22 16:38:00,78.9,68.7,29.95,West,261,3.0,3.0,71,0.00,,,0.00,WeatherCatV1.21B27,2013-08-22 20:38:00,
2013-08-22 16:43:00,78.8,68.6,29.95,SW,221,3.0,6.0,71,0.00,,,0.00,WeatherCatV1.21B27,2013-08-22 20:43:00,
2013-08-22 16:48:00,78.6,68.4,29.95,SW,235,4.0,6.0,71,0.00,,,0.00,WeatherCatV1.21B27,2013-08-22 20:48:00,
2013-08-22 16:53:00,78.5,68.7,29.95,WSW,254,3.0,5.0,72,0.00,,,0.00,WeatherCatV1.21B27,2013-08-22 20:53:00,
2013-08-22 16:58:00,78.3,68.5,29.95,SW,233,3.0,5.0,72,0.00,,,0.00,WeatherCatV1.21B27,2013-08-22 20:58:00,
2013-08-22 17:03:00,78.7,68.9,29.95,West,263,2.0,2.0,72,0.00,,,0.00,WeatherCatV1.21B27,2013-08-22 21:03:00,
2013-08-22 17:08:00,78.9,68.3,29.95,West,264,2.0,3.0,70,0.00,,,0.00,WeatherCatV1.21B27,2013-08-22 21:08:00,
2013-08-22 17:13:00,78.8,68.2,29.94,West,267,2.0,3.0,70,0.00,,,0.00,WeatherCatV1.21B27,2013-08-22 21:13:00,
2013-08-22 17:18:00,78.6,68.4,29.94,West,267,2.0,3.0,71,0.00,,,0.00,WeatherCatV1.21B27,2013-08-22 21:18:00,
2013-08-22 17:23:00,78.3,67.7,29.94,WSW,244,1.0,2.0,70,0.00,,,0.00,WeatherCatV1.21B27,2013-08-22 21:23:00,
2013-08-22 17:28:00,78.1,67.5,29.94,WSW,239,2.0,3.0,70,0.00,,,0.00,WeatherCatV1.21B27,2013-08-22 21:28:00,
2013-08-22 17:33:00,78.0,67.4,29.94,WSW,238,3.0,3.0,70,0.00,,,0.00,WeatherCatV1.21B27,2013-08-22 21:33:00,
2013-08-22 17:38:00,77.9,66.9,29.94,West,265,1.0,2.0,69,0.00,,,0.00,WeatherCatV1.21B27,2013-08-22 21:38:00,
2013-08-22 17:43:00,77.8,66.4,29.94,SW,232,3.0,3.0,68,0.00,,,0.00,WeatherCatV1.21B27,2013-08-22 21:43:00,
2013-08-22 17:48:00,77.7,66.7,29.94,WSW,240,0.0,2.0,69,0.00,,,0.00,WeatherCatV1.21B27,2013-08-22 21:48:00,
2013-08-22 17:53:00,77.6,66.6,29.94,WSW,252,1.0,3.0,69,0.00,,,0.00,WeatherCatV1.21B27,2013-08-22 21:53:00,
2013-08-22 17:58:00,77.6,67.0,29.94,WSW,252,0.0,2.0,70,0.00,,,0.00,WeatherCatV1.21B27,2013-08-22 21:58:00,
2013-08-22 18:03:00,77.6,67.4,29.94,WSW,253,3.0,3.0,71,0.00,,,0.00,WeatherCatV1.21B27,2013-08-22 22:03:00,
2013-08-22 18:08:00,77.7,67.5,29.94,WSW,253,0.0,1.0,71,0.00,,,0.00,WeatherCatV1.21B27,2013-08-22 22:08:00,
2013-08-22 18:13:00,78.0,67.8,29.94,WSW,253,0.0,0.0,71,0.00,,,0.00,WeatherCatV1.21B27,2013-08-22 22:13:00,
2013-08-22 18:18:00,78.1,67.9,29.94,West,273,1.0,4.0,71,0.00,,,0.00,WeatherCatV1.21B27,2013-08-22 22:18:00,
2013-08-22 18:23:00,77.9,67.7,29.94,West,273,0.0,0.0,71,0.00,,,0.00,WeatherCatV1.21B27,2013-08-22 22:23:00,
2013-08-22 18:28:00,77.7,67.9,29.94,West,272,0.0,0.0,72,0.00,,,0.00,WeatherCatV1.21B27,2013-08-22 22:28:00,
2013-08-22 18:33:00,77.6,67.4,29.94,West,272,0.0,0.0,71,0.00,,,0.00,WeatherCatV1.21B27,2013-08-22 22:33:00,
2013-08-22 18:38:00,77.6,67.4,29.94,West,273,0.0,0.0,71,0.00,,,0.00,WeatherCatV1.21B27,2013-08-22 22:38:00,
2013-08-22 18:43:00,77.7,67.9,29.94,West,273,1.0,1.0,72,0.00,,,0.00,WeatherCatV1.21B27,2013-08-22 22:43:00,
2013-08-22 18:48:00,77.7,67.9,29.94,West,272,0.0,0.0,72,0.00,,,0.00,WeatherCatV1.21B27,2013-08-22 22:48:00,
2013-08-22 18:53:00,77.7,67.5,29.94,West,272,1.0,1.0,71,0.00,,,0.00,WeatherCatV1.21B27,2013-08-22 22:53:00,
2013-08-22 18:58:00,77.8,68.0,29.94,West,273,0.0,0.0,72,0.00,,,0.00,WeatherCatV1.21B27,2013-08-22 22:58:00,
2013-08-22 19:03:00,77.8,67.6,29.94,West,273,0.0,0.0,71,0.00,,,0.00,WeatherCatV1.21B27,2013-08-22 23:03:00,
2013-08-22 19:08:00,77.9,67.3,29.93,West,273,0.0,0.0,70,0.00,,,0.00,WeatherCatV1.21B27,2013-08-22 23:08:00,
2013-08-22 19:13:00,77.9,67.7,29.94,West,273,0.0,0.0,71,0.00,,,0.00,WeatherCatV1.21B27,2013-08-22 23:13:00,
2013-08-22 19:18:00,77.7,67.5,29.94,West,273,0.0,0.0,71,0.00,,,0.00,WeatherCatV1.21B27,2013-08-22 23:18:00,
2013-08-22 19:23:00,77.5,67.7,29.94,West,272,0.0,0.0,72,0.00,,,0.00,WeatherCatV1.21B27,2013-08-22 23:23:00,
2013-08-22 19:28:00,77.4,68.4,29.94,West,272,0.0,0.0,74,0.00,,,0.00,WeatherCatV1.21B27,2013-08-22 23:28:00,
2013-08-22 19:33:00,77.2,68.6,29.94,West,273,0.0,0.0,75,0.00,,,0.00,WeatherCatV1.21B27,2013-08-22 23:33:00,
2013-08-22 19:38:00,76.8,68.3,29.94,SW,236,2.0,4.0,75,0.00,,,0.00,WeatherCatV1.21B27,2013-08-22 23:38:00,
2013-08-22 19:43:00,76.2,67.7,29.94,WSW,246,3.0,4.0,75,0.00,,,0.00,WeatherCatV1.21B27,2013-08-22 23:43:00,
2013-08-22 19:48:00,75.9,67.4,29.95,WSW,248,1.0,2.0,75,0.00,,,0.00,WeatherCatV1.21B27,2013-08-22 23:48:00,
2013-08-22 19:53:00,75.6,68.2,29.95,West,261,1.0,4.0,78,0.00,,,0.00,WeatherCatV1.21B27,2013-08-22 23:53:00,
2013-08-22 19:58:00,75.4,68.4,29.95,WSW,254,1.0,2.0,79,0.00,,,0.00,WeatherCatV1.21B27,2013-08-22 23:58:00,
2013-08-22 20:03:00,75.3,69.1,29.94,SW,236,1.0,3.0,81,0.00,,,0.00,WeatherCatV1.21B27,2013-08-23 00:03:00,
2013-08-22 20:08:00,75.1,69.2,29.94,WSW,241,2.0,4.0,82,0.00,,,0.00,WeatherCatV1.21B27,2013-08-23 00:08:00,
2013-08-22 20:13:00,74.9,69.4,29.94,WSW,242,0.0,1.0,83,0.00,,,0.00,WeatherCatV1.21B27,2013-08-23 00:13:00,
2013-08-22 20:18:00,74.7,69.5,29.94,WSW,242,0.0,0.0,84,0.00,,,0.00,WeatherCatV1.21B27,2013-08-23 00:18:00,
2013-08-22 20:23:00,74.7,69.9,29.94,WSW,242,0.0,0.0,85,0.00,,,0.00,WeatherCatV1.21B27,2013-08-23 00:23:00,
2013-08-22 20:28:00,74.6,69.8,29.94,WSW,242,0.0,0.0,85,0.00,,,0.00,WeatherCatV1.21B27,2013-08-23 00:28:00,
2013-08-22 20:33:00,74.4,69.9,29.95,WSW,241,0.0,1.0,86,0.00,,,0.00,WeatherCatV1.21B27,2013-08-23 00:33:00,
2013-08-22 20:38:00,74.3,69.8,29.95,WSW,241,0.0,2.0,86,0.00,,,0.00,WeatherCatV1.21B27,2013-08-23 00:38:00,
2013-08-22 20:43:00,74.2,70.1,29.95,WSW,241,0.0,1.0,87,0.00,,,0.00,WeatherCatV1.21B27,2013-08-23 00:43:00,
2013-08-22 20:48:00,74.1,70.0,29.95,WSW,242,0.0,0.0,87,0.00,,,0.00,WeatherCatV1.21B27,2013-08-23 00:48:00,
2013-08-22 20:53:00,74.0,69.9,29.95,WSW,242,0.0,0.0,87,0.00,,,0.00,WeatherCatV1.21B27,2013-08-23 00:53:00,
2013-08-22 20:58:00,73.9,70.1,29.95,WSW,241,0.0,0.0,88,0.00,,,0.00,WeatherCatV1.21B27,2013-08-23 00:58:00,
2013-08-22 21:03:00,73.8,70.0,29.96,WSW,242,0.0,0.0,88,0.00,,,0.00,WeatherCatV1.21B27,2013-08-23 01:03:00,
2013-08-22 21:08:00,73.7,69.9,29.96,WSW,242,0.0,0.0,88,0.00,,,0.00,WeatherCatV1.21B27,2013-08-23 01:08:00,
2013-08-22 21:13:00,73.6,69.8,29.96,WSW,242,0.0,0.0,88,0.00,,,0.00,WeatherCatV1.21B27,2013-08-23 01:13:00,
2013-08-22 21:18:00,73.6,69.8,29.96,WSW,241,0.0,1.0,88,0.00,,,0.00,WeatherCatV1.21B27,2013-08-23 01:18:00,
2013-08-22 21:23:00,73.5,69.7,29.96,WSW,241,0.0,0.0,88,0.00,,,0.00,WeatherCatV1.21B27,2013-08-23 01:23:00,
2013-08-22 21:28:00,73.4,69.6,29.96,WSW,242,0.0,0.0,88,0.00,,,0.00,WeatherCatV1.21B27,2013-08-23 01:28:00,
2013-08-22 21:33:00,73.3,69.5,29.97,WSW,242,0.0,0.0,88,0.00,,,0.00,WeatherCatV1.21B27,2013-08-23 01:33:00,
2013-08-22 21:38:00,73.2,69.4,29.97,WSW,242,0.0,0.0,88,0.00,,,0.00,WeatherCatV1.21B27,2013-08-23 01:38:00,
2013-08-22 21:43:00,73.1,69.3,29.96,WSW,242,0.0,0.0,88,0.00,,,0.00,WeatherCatV1.21B27,2013-08-23 01:43:00,
2013-08-22 21:48:00,72.9,69.1,29.96,WSW,242,0.0,0.0,88,0.00,,,0.00,WeatherCatV1.21B27,2013-08-23 01:48:00,
2013-08-22 21:53:00,72.9,69.1,29.97,WSW,242,0.0,0.0,88,0.00,,,0.00,WeatherCatV1.21B27,2013-08-23 01:53:00,
2013-08-22 21:58:00,72.7,68.9,29.97,WSW,242,0.0,0.0,88,0.00,,,0.00,WeatherCatV1.21B27,2013-08-23 01:58:00,
2013-08-22 22:03:00,72.6,68.8,29.97,WSW,242,0.0,0.0,88,0.00,,,0.00,WeatherCatV1.21B27,2013-08-23 02:03:00,
2013-08-22 22:08:00,72.5,68.7,29.97,WSW,242,0.0,0.0,88,0.00,,,0.00,WeatherCatV1.21B27,2013-08-23 02:08:00,
2013-08-22 22:13:00,72.4,69.0,29.97,WSW,241,0.0,0.0,89,0.00,,,0.00,WeatherCatV1.21B27,2013-08-23 02:13:00,
2013-08-22 22:18:00,72.2,68.8,29.96,WSW,242,0.0,0.0,89,0.00,,,0.00,WeatherCatV1.21B27,2013-08-23 02:18:00,
2013-08-22 22:23:00,72.2,68.8,29.97,WSW,242,0.0,0.0,89,0.00,,,0.00,WeatherCatV1.21B27,2013-08-23 02:23:00,
2013-08-22 22:28:00,72.1,68.7,29.97,WSW,242,0.0,0.0,89,0.00,,,0.00,WeatherCatV1.21B27,2013-08-23 02:28:00,
2013-08-22 22:33:00,72.0,68.6,29.97,WSW,242,0.0,0.0,89,0.00,,,0.00,WeatherCatV1.21B27,2013-08-23 02:33:00,
2013-08-22 22:38:00,71.9,68.5,29.97,WSW,241,0.0,0.0,89,0.00,,,0.00,WeatherCatV1.21B27,2013-08-23 02:38:00,
2013-08-22 22:43:00,71.9,68.5,29.97,WSW,242,0.0,0.0,89,0.00,,,0.00,WeatherCatV1.21B27,2013-08-23 02:43:00,
2013-08-22 22:48:00,71.9,68.5,29.97,WSW,241,0.0,0.0,89,0.00,,,0.00,WeatherCatV1.21B27,2013-08-23 02:48:00,
2013-08-22 22:53:00,71.8,68.4,29.97,WSW,242,0.0,0.0,89,0.00,,,0.00,WeatherCatV1.21B27,2013-08-23 02:53:00,
2013-08-22 22:58:00,71.8,68.4,29.97,WSW,242,0.0,0.0,89,0.00,,,0.00,WeatherCatV1.21B27,2013-08-23 02:58:00,
2013-08-22 23:03:00,71.7,68.3,29.97,WSW,242,0.0,0.0,89,0.00,,,0.00,WeatherCatV1.21B27,2013-08-23 03:03:00,
2013-08-22 23:08:00,71.6,68.2,29.97,WSW,241,0.0,0.0,89,0.00,,,0.00,WeatherCatV1.21B27,2013-08-23 03:08:00,
2013-08-22 23:13:00,71.5,68.1,29.97,WSW,241,0.0,0.0,89,0.00,,,0.00,WeatherCatV1.21B27,2013-08-23 03:13:00,
2013-08-22 23:18:00,71.4,68.0,29.97,WSW,242,0.0,0.0,89,0.00,,,0.00,WeatherCatV1.21B27,2013-08-23 03:18:00,
2013-08-22 23:23:00,71.4,68.0,29.97,WSW,242,0.0,0.0,89,0.00,,,0.00,WeatherCatV1.21B27,2013-08-23 03:23:00,
2013-08-22 23:28:00,71.4,68.0,29.97,WSW,241,0.0,0.0,89,0.00,,,0.00,WeatherCatV1.21B27,2013-08-23 03:28:00,
2013-08-22 23:33:00,71.6,68.2,29.98,WSW,242,0.0,0.0,89,0.00,,,0.00,WeatherCatV1.21B27,2013-08-23 03:33:00,
2013-08-22 23:38:00,71.8,68.4,29.98,NNE,14,0.0,0.0,89,0.00,,,0.00,WeatherCatV1.21B27,2013-08-23 03:38:00,
2013-08-22 23:43:00,72.0,68.6,29.97,NNE,14,0.0,0.0,89,0.00,,,0.00,WeatherCatV1.21B27,2013-08-23 03:43:00,
2013-08-22 23:48:00,72.3,68.9,29.98,NNW,342,0.0,0.0,89,0.00,,,0.00,WeatherCatV1.21B27,2013-08-23 03:48:00,
2013-08-22 23:53:00,72.7,69.3,29.97,North,355,0.0,0.0,89,0.00,,,0.00,WeatherCatV1.21B27,2013-08-23 03:53:00,
2013-08-22 23:58:00,73.0,69.2,29.97,NE,41,0.0,0.0,88,0.00,,,0.00,WeatherCatV1.21B27,2013-08-23 03:58:00,